Flag for Germany Weather past 2 weeks in Plettenberg, North Rhine-Westphalia, Germany

Now
64 °F

Clear.


Feels Like: 64 °F
Forecast: 50 / 69 °F
Wind: 7 mph from Southeast

Location: Dortmund / Wickede

Current Time: Sep 17, 2014 at 11:52:12 PM

Latest Report: Sep 17, 2014 at 10:50 PM


Visibility: 10 mi

Pressure: 29.89 "Hg

Humidity: 73%

Dew point: 55 °F

Location of PlettenbergLocation

Historic Weather in Plettenberg — Graph

°F

Plettenberg temperature yesterday

Maximum temperature yesterday: 77 °F (at 1:50 PM)
Minimum temperature yesterday: 55 °F (at 6:20 AM)
Average temperature yesterday: 67 °F

Past Weeks' High & Low Weather Summary

 TemperatureHumidityPressure
High77 °F (Sep 6, 1:50 PM)100% (Sep 3, 9:20 AM)30.24 "Hg (Sep 3, 9:20 AM)
Low43 °F (Sep 12, 5:50 AM)39% (Sep 17, 3:20 PM)29.86 "Hg (Sep 17, 5:20 PM)
Average62 °F74%30.06 "Hg
* Reported Sep 2 10:20 PM — Sep 17 10:20 PM, Plettenberg, Weather by CustomWeather, © 2014

Note: Actual official high and low records may vary slightly from our data, if they occured in-between our weather recording intervals... More about our weather records

Advertising

Plettenberg weather history for previous 24 hours

 ConditionsComfort  
Time TempWeatherWind HumidityBarometerVisibility
10:20 PM
Sep 17
64 °FClear.7 mph68%29.89 "Hg10 mi
9:50 PM66 °FClear.7 mph68%29.89 "Hg10 mi
9:20 PM66 °FClear.7 mph68%29.89 "Hg10 mi
8:50 PM68 °FClear.6 mph60%29.89 "Hg10 mi
8:20 PM68 °FSunny.6 mph60%29.89 "Hg10 mi
7:50 PM70 °FSunny.7 mph57%29.89 "Hg10 mi
7:20 PM72 °FSunny.6 mph53%29.86 "Hg10 mi
6:50 PM73 °FSunny.8 mph47%29.86 "Hg10 mi
6:20 PM75 °FPassing clouds.7 mph44%29.86 "HgN/A
5:50 PM77 °FPassing clouds.5 mph39%29.86 "HgN/A
5:20 PM77 °FPassing clouds.7 mph42%29.86 "HgN/A
4:50 PM77 °FPassing clouds.6 mph42%29.89 "HgN/A
4:20 PM77 °FPassing clouds.6 mph42%29.89 "HgN/A
3:50 PM77 °FPassing clouds.3 mph42%29.89 "HgN/A
3:20 PM77 °FPassing clouds.7 mph39%29.89 "HgN/A
2:50 PM77 °FPassing clouds.6 mph47%29.89 "HgN/A
2:20 PM73 °FScattered clouds.8 mph50%29.89 "HgN/A
1:50 PM73 °FScattered clouds.7 mph53%29.89 "HgN/A
1:20 PM73 °FPassing clouds.8 mph57%29.92 "HgN/A
12:50 PM72 °FPassing clouds.6 mph61%29.92 "HgN/A
12:20 PM72 °FPassing clouds.6 mph61%29.92 "HgN/A
11:50 AM70 °FPassing clouds.6 mph64%29.92 "HgN/A
11:20 AM68 °FPassing clouds.6 mph69%29.92 "HgN/A
10:50 AM68 °FPassing clouds.5 mph69%29.95 "HgN/A
10:20 AM64 °FPassing clouds.5 mph73%29.95 "HgN/A
9:50 AM64 °FSunny.3 mph73%29.95 "Hg10 mi
9:20 AM61 °FSunny.3 mph83%29.95 "Hg10 mi
8:50 AM59 °FSunny.3 mph82%29.95 "Hg10 mi
8:20 AM57 °FSunny.3 mph88%29.95 "Hg10 mi
7:50 AM55 °FClear.2 mph88%29.95 "Hg10 mi
7:20 AM55 °FClear.2 mph88%29.95 "Hg6 mi
6:50 AM55 °FClear.3 mph88%29.95 "Hg10 mi
6:20 AM55 °FClear.2 mph88%29.95 "Hg10 mi
5:50 AM55 °FClear.No wind88%29.95 "Hg10 mi
5:20 AM55 °FClear.No wind88%29.95 "Hg10 mi
Weather by CustomWeather, © 2014

See weather overviewHow to use our weather pages